Change the Weather History Date:

Wednesday, October 9, 2013

  Actual Average Record
Temperature  
Mean Temperature 44 °F 62 °F  
Max Temperature 51 °F 70 °F 87 °F (1996)
Min Temperature 37 °F 53 °F 36 °F (1960)
Degree Days  
Heating Degree Days 21 6  
Month to date heating degree days 52 44  
Since 1 July heating degree days 99 122  
Cooling Degree Days 0 2  
Month to date cooling degree days 9 26  
Year to date cooling degree days 1519 972  
Moisture  
Dew Point 39 °F    
Average Humidity 75    
Maximum Humidity 89    
Minimum Humidity 61    
Precipitation  
Precipitation 0.20 in 0.02 in 0.20 in (2013)
Month to date precipitation 0.20 0.12  
Year to date precipitation 3.19 8.82  
Since 1 July precipitation 0.28 0.34  
Sea Level Pressure  
Sea Level Pressure 29.70 in    
Wind  
Wind Speed 18 mph (South)    
Max Wind Speed 31 mph    
Max Gust Speed 39 mph    
Visibility 4 miles    
Events Fog , Rain    
T = Trace of Precipitation, MM = Missing Value Source: NWS Daily Summary

Daily Weather History Graph

Daily Weather History Graph

Search for Another Location

Airport or City:

Trip Planner

Search our weather history database for the weather conditions in past years. The results will help you decide how hot, cold, wet, or windy it might be!

Date:

Astronomy

Oct. 09, 2013 Rise Set
Actual Time 6:56 AM PDT 6:27 PM PDT
Civil Twilight 6:30 AM PDT 6:52 PM PDT
Nautical Twilight 6:01 AM PDT 7:21 PM PDT
Astronomical Twilight 5:32 AM PDT 7:51 PM PDT
Moon 11:46 AM PDT (10/9) 10:16 PM PDT (10/9)
Length of Visible Light 12h 22m
Length of Day
11h 31m
Waxing Crescent, 26% of the Moon is Illuminated
Oct 9
Waxing Crescent
Oct 11
First Quarter
Oct 18
Full
Oct 26
Last Quarter
Nov 3
New

Hourly Weather History & Observations

Time (PDT) Temp. Windchill Dew Point Humidity Pressure Visibility Wind Dir Wind Speed Gust Speed Precip Events Conditions
12:03 AM 48.2 °F - 42.8 °F 82% 29.83 in 0.5 mi South 18.4 mph 24.2 mph N/A   Haze
12:07 AM 46.4 °F 39.5 °F 42.8 °F 87% 29.83 in 0.2 mi South 17.3 mph 24.2 mph N/A Fog Fog
12:36 AM 46.4 °F 39.5 °F 42.8 °F 87% 29.82 in 1.0 mi South 17.3 mph - N/A   Mist
12:46 AM 46.4 °F 38.7 °F 42.8 °F 87% 29.82 in 0.5 mi South 20.7 mph 25.3 mph N/A Fog Fog
12:48 AM 46.0 °F 38.5 °F 42.1 °F 86% 29.70 in 0.5 mi South 19.6 mph 25.3 mph N/A Fog Fog
1:00 AM 46.4 °F 38.7 °F 42.8 °F 87% 29.81 in 0.2 mi South 20.7 mph 26.5 mph N/A Fog Fog
1:19 AM 46.4 °F 38.3 °F 42.8 °F 87% 29.81 in 0.8 mi South 23.0 mph 28.8 mph N/A   Overcast
1:22 AM 46.4 °F 39.2 °F 42.8 °F 87% 29.80 in 1.8 mi South 18.4 mph 28.8 mph N/A   Overcast
1:24 AM 46.4 °F 39.2 °F 42.8 °F 87% 29.80 in 4.0 mi South 18.4 mph 28.8 mph N/A   Overcast
1:48 AM 46.0 °F 39.0 °F 41.0 °F 83% 29.67 in 8.0 mi South 17.3 mph 26.5 mph N/A   Overcast
1:55 AM 46.4 °F 39.8 °F 41.0 °F 81% 29.79 in 4.0 mi South 16.1 mph 28.8 mph N/A   Haze
1:58 AM 46.4 °F 39.0 °F 41.0 °F 81% 29.78 in 1.5 mi South 19.6 mph 28.8 mph N/A   Haze
2:01 AM 46.4 °F 39.5 °F 41.0 °F 81% 29.78 in 0.8 mi SSW 17.3 mph 28.8 mph N/A   Haze
2:15 AM 46.4 °F 39.0 °F 41.0 °F 81% 29.78 in 1.2 mi SSW 19.6 mph 29.9 mph N/A   Haze
2:22 AM 46.4 °F 38.5 °F 41.0 °F 81% 29.77 in 0.5 mi South 21.9 mph 28.8 mph N/A   Haze
2:27 AM 46.4 °F 38.5 °F 41.0 °F 81% 29.77 in 0.2 mi SSW 21.9 mph 34.5 mph N/A   Haze
2:43 AM 44.6 °F 35.9 °F 41.0 °F 87% 29.76 in 0.5 mi South 23.0 mph 33.4 mph N/A Fog Fog
2:48 AM 45.0 °F 36.4 °F 41.0 °F 86% 29.64 in 1.5 mi South 23.0 mph 33.4 mph N/A   Overcast
2:52 AM 44.6 °F 35.9 °F 41.0 °F 87% 29.75 in 3.0 mi SSW 23.0 mph 32.2 mph N/A   Overcast
3:25 AM 44.6 °F 36.1 °F 39.2 °F 81% 29.75 in 9.0 mi South 21.9 mph 36.8 mph N/A   Mostly Cloudy
3:31 AM 44.6 °F 35.1 °F 39.2 °F 81% 29.74 in 9.0 mi South 27.6 mph 38.0 mph N/A   Mostly Cloudy
3:39 AM 44.6 °F 34.9 °F 41.0 °F 87% 29.74 in 4.0 mi South 28.8 mph 39.1 mph N/A   Mostly Cloudy
3:41 AM 44.6 °F 35.3 °F 41.0 °F 87% 29.74 in 2.5 mi South 26.5 mph 39.1 mph N/A   Mostly Cloudy
3:48 AM 45.0 °F 36.0 °F 41.0 °F 86% 29.63 in 1.2 mi South 25.3 mph 36.8 mph N/A   Mostly Cloudy
4:00 AM 44.6 °F 36.1 °F 41.0 °F 87% 29.74 in 0.5 mi South 21.9 mph 35.7 mph N/A Fog Fog
4:07 AM 44.6 °F 35.7 °F 41.0 °F 87% 29.74 in 0.2 mi South 24.2 mph 34.5 mph N/A Fog Fog
4:12 AM 44.6 °F 36.4 °F 41.0 °F 87% 29.74 in 0.8 mi South 20.7 mph 34.5 mph N/A   Mist
4:16 AM 44.6 °F 36.4 °F 39.2 °F 81% 29.74 in 1.5 mi South 20.7 mph 31.1 mph N/A   Haze
4:20 AM 44.6 °F 36.1 °F 39.2 °F 81% 29.74 in 2.5 mi South 21.9 mph 31.1 mph N/A   Haze
4:23 AM 44.6 °F 35.5 °F 39.2 °F 81% 29.74 in 1.2 mi South 25.3 mph 35.7 mph N/A   Haze
4:32 AM 44.6 °F 35.5 °F 39.2 °F 81% 29.73 in 0.8 mi South 25.3 mph 36.8 mph N/A   Haze
4:41 AM 44.6 °F 35.7 °F 39.2 °F 81% 29.73 in 0.2 mi South 24.2 mph 35.7 mph N/A   Haze
4:48 AM 45.0 °F 35.6 °F 41.0 °F 86% 29.62 in 0.2 mi South 27.6 mph 36.8 mph N/A Fog Fog
5:04 AM 44.6 °F 35.9 °F 41.0 °F 87% 29.73 in 0.5 mi South 23.0 mph 38.0 mph N/A Fog Fog
5:13 AM 44.6 °F 35.5 °F 41.0 °F 87% 29.73 in 0.2 mi South 25.3 mph 38.0 mph N/A Fog Fog
5:32 AM 44.6 °F 35.5 °F 41.0 °F 87% 29.72 in 0.8 mi South 25.3 mph 32.2 mph N/A   Mist
5:44 AM 44.6 °F 35.9 °F 41.0 °F 87% 29.72 in 0.2 mi South 23.0 mph 31.1 mph N/A Fog Fog
5:48 AM 45.0 °F 36.0 °F 41.0 °F 86% 29.62 in 0.2 mi South 25.3 mph 35.7 mph N/A Fog Fog
6:00 AM 44.6 °F 36.1 °F 41.0 °F 87% 29.72 in 0.5 mi South 21.9 mph 31.1 mph N/A Fog Fog
6:05 AM 44.6 °F 35.7 °F 41.0 °F 87% 29.72 in 0.2 mi South 24.2 mph 29.9 mph N/A Fog Fog
6:15 AM 44.6 °F 36.1 °F 41.0 °F 87% 29.72 in 0.8 mi South 21.9 mph 29.9 mph N/A   Mist
6:31 AM 44.6 °F 35.9 °F 41.0 °F 87% 29.72 in 0.2 mi South 23.0 mph 31.1 mph N/A Fog Fog
6:48 AM 44.1 °F 35.0 °F 41.0 °F 89% 29.63 in 0.2 mi South 24.2 mph 31.1 mph N/A Fog Fog
7:48 AM 44.1 °F 36.2 °F 41.0 °F 89% 29.65 in 0.2 mi South 18.4 mph 28.8 mph N/A Fog Fog
8:19 AM 44.6 °F 36.4 °F 39.2 °F 81% 29.72 in 0.8 mi SSW 20.7 mph 29.9 mph N/A   Haze
8:24 AM 44.6 °F 36.6 °F 39.2 °F 81% 29.72 in 1.0 mi SSW 19.6 mph 33.4 mph N/A   Mist
8:46 AM 44.6 °F 35.9 °F 41.0 °F 87% 29.72 in 0.2 mi SSW 23.0 mph 33.4 mph N/A Fog Fog
8:48 AM 45.0 °F 37.4 °F 41.0 °F 86% 29.64 in 0.2 mi SSW 18.4 mph 33.4 mph N/A Fog Fog
9:28 AM 44.6 °F 36.1 °F 39.2 °F 81% 29.71 in 0.5 mi SSW 21.9 mph 32.2 mph N/A Fog Fog
9:37 AM 44.6 °F 36.6 °F 39.2 °F 81% 29.72 in 1.5 mi SSW 19.6 mph 32.2 mph N/A   Haze
9:41 AM 44.6 °F 36.4 °F 39.2 °F 81% 29.71 in 3.0 mi SSW 20.7 mph 33.4 mph N/A   Haze
9:48 AM 45.0 °F 37.4 °F 39.9 °F 82% 29.64 in 9.0 mi SSW 18.4 mph 31.1 mph N/A   Overcast
9:57 AM 44.6 °F 35.7 °F 39.2 °F 81% 29.72 in 7.0 mi SSW 24.2 mph 32.2 mph N/A   Overcast
10:11 AM 46.4 °F 38.1 °F 39.2 °F 76% 29.72 in 10.0 mi SSW 24.2 mph 34.5 mph N/A   Overcast
10:48 AM 46.0 °F 38.3 °F 39.0 °F 76% 29.65 in 10.0 mi SSW 20.7 mph 29.9 mph N/A   Overcast
11:25 AM 46.4 °F 38.3 °F 37.4 °F 71% 29.72 in 10.0 mi SSW 23.0 mph 31.1 mph N/A   Overcast
11:48 AM 45.0 °F 36.4 °F 36.0 °F 71% 29.65 in 10.0 mi SSW 23.0 mph 32.2 mph N/A   Overcast
12:25 PM 46.4 °F 38.7 °F 37.4 °F 71% 29.71 in 10.0 mi SSW 20.7 mph 29.9 mph 0.00 in   Overcast
12:48 PM 48.0 °F - 36.0 °F 63% 29.62 in 10.0 mi South 20.7 mph 31.1 mph 0.00 in   Mostly Cloudy
1:03 PM 50.0 °F - 35.6 °F 58% 29.69 in 10.0 mi SSW 16.1 mph 27.6 mph N/A   Mostly Cloudy
1:15 PM 48.2 °F - 37.4 °F 66% 29.69 in 10.0 mi South 19.6 mph 27.6 mph N/A   Mostly Cloudy
1:23 PM 46.4 °F 38.7 °F 37.4 °F 71% 29.69 in 10.0 mi South 20.7 mph 28.8 mph N/A   Overcast
1:43 PM 46.4 °F 38.7 °F 37.4 °F 71% 29.67 in 10.0 mi SSE 20.7 mph 26.5 mph N/A   Overcast
1:48 PM 48.0 °F - 37.0 °F 66% 29.60 in 10.0 mi South 23.0 mph 31.1 mph N/A   Mostly Cloudy
2:11 PM 46.4 °F 39.5 °F 37.4 °F 71% 29.67 in 10.0 mi South 17.3 mph 28.8 mph N/A   Mostly Cloudy
2:34 PM 42.8 °F 35.4 °F 37.4 °F 81% 29.67 in 1.8 mi SSE 15.0 mph 26.5 mph 0.02 in Rain Rain
2:37 PM 44.6 °F 37.8 °F 39.2 °F 81% 29.67 in 1.0 mi South 15.0 mph 25.3 mph 0.02 in Rain Light Rain
2:43 PM 44.6 °F 37.8 °F 39.2 °F 81% 29.67 in 1.0 mi South 15.0 mph - 0.02 in Rain Light Rain
2:45 PM 44.6 °F 37.4 °F 39.2 °F 81% 29.67 in 2.0 mi South 16.1 mph - 0.02 in Rain Light Rain
2:48 PM 44.1 °F 36.8 °F 39.0 °F 82% 29.61 in 5.0 mi South 16.1 mph 23.0 mph 0.02 in   Haze
2:51 PM 44.6 °F 36.6 °F 39.2 °F 81% 29.67 in 1.0 mi South 19.6 mph - N/A   Haze
2:53 PM 44.6 °F 36.9 °F 39.2 °F 81% 29.67 in 0.5 mi South 18.4 mph - N/A   Haze
2:56 PM 44.6 °F 37.2 °F 39.2 °F 81% 29.67 in 0.2 mi South 17.3 mph 25.3 mph N/A   Haze
3:02 PM 44.6 °F 37.4 °F 39.2 °F 81% 29.67 in 0.2 mi South 16.1 mph 26.5 mph N/A   Haze
3:07 PM 44.6 °F 37.2 °F 41.0 °F 87% 29.67 in 0.5 mi SSW 17.3 mph 26.5 mph N/A Fog Fog
3:11 PM 44.6 °F 38.1 °F 41.0 °F 87% 29.67 in 0.2 mi SSW 13.8 mph 23.0 mph N/A Fog Fog
3:30 PM 46.4 °F 39.8 °F 42.8 °F 87% 29.66 in 1.0 mi SSW 16.1 mph 23.0 mph N/A   Mist
3:36 PM 46.4 °F 39.0 °F 41.0 °F 81% 29.66 in 0.2 mi South 19.6 mph 26.5 mph N/A   Haze
3:40 PM 44.6 °F 36.9 °F 41.0 °F 87% 29.66 in 0.2 mi SSW 18.4 mph 26.5 mph N/A Fog Fog
3:48 PM 46.0 °F 38.8 °F 39.9 °F 79% 29.60 in 0.5 mi South 18.4 mph 26.5 mph N/A   Haze
3:50 PM 46.4 °F 39.0 °F 39.2 °F 76% 29.67 in 2.0 mi South 19.6 mph 26.5 mph N/A   Haze
3:52 PM 44.6 °F 36.6 °F 39.2 °F 81% 29.67 in 0.8 mi South 19.6 mph 26.5 mph N/A   Haze
3:58 PM 44.6 °F 37.2 °F 39.2 °F 81% 29.67 in 0.2 mi South 17.3 mph 26.5 mph N/A   Haze
4:11 PM 44.6 °F 37.2 °F 39.2 °F 81% 29.67 in 2.0 mi South 17.3 mph 25.3 mph N/A   Haze
4:15 PM 44.6 °F 37.8 °F 39.2 °F 81% 29.67 in 6.0 mi South 15.0 mph 25.3 mph N/A   Haze
4:24 PM 46.4 °F 40.4 °F 41.0 °F 81% 29.67 in 10.0 mi South 13.8 mph 21.9 mph N/A   Overcast
4:39 PM 46.4 °F 40.4 °F 39.2 °F 76% 29.68 in 10.0 mi SE 13.8 mph 21.9 mph N/A   Overcast
4:48 PM 45.0 °F - 36.0 °F 71% 29.63 in 10.0 mi Calm Calm - N/A   Overcast
4:52 PM 42.8 °F 39.3 °F 35.6 °F 76% 29.69 in 10.0 mi Variable 5.8 mph 19.6 mph N/A   Overcast
5:27 PM 37.4 °F 32.8 °F 32.0 °F 81% 29.69 in 1.8 mi Variable 5.8 mph - 0.06 in Rain Heavy Rain
5:31 PM 37.4 °F 34.9 °F 32.0 °F 81% 29.70 in 1.2 mi North 3.5 mph - 0.12 in Rain Heavy Rain
5:37 PM 37.4 °F 32.1 °F 32.0 °F 81% 29.70 in 2.0 mi NNE 6.9 mph - 0.16 in Rain Heavy Rain
5:46 PM 37.4 °F 32.1 °F 33.8 °F 87% 29.70 in 5.0 mi NE 6.9 mph - 0.18 in Rain Light Rain
5:48 PM 37.9 °F 32.7 °F 33.1 °F 83% 29.65 in 7.0 mi NE 6.9 mph - 0.18 in Rain Light Rain
6:16 PM 39.2 °F 32.5 °F 33.8 °F 81% 29.70 in 10.0 mi NNE 10.4 mph 20.7 mph 0.00 in   Overcast
6:48 PM 39.9 °F 31.8 °F 28.9 °F 65% 29.65 in 10.0 mi NNW 15.0 mph 27.6 mph 0.00 in   Overcast
7:48 PM 41.0 °F 35.8 °F 30.0 °F 65% 29.66 in 10.0 mi NNW 8.1 mph 20.7 mph N/A   Scattered Clouds
8:48 PM 39.0 °F 33.4 °F 30.0 °F 70% 29.68 in 10.0 mi NW 8.1 mph - N/A   Clear
9:48 PM 39.0 °F 31.8 °F 32.0 °F 76% 29.71 in 10.0 mi NNW 11.5 mph - N/A   Clear
10:48 PM 39.0 °F 31.4 °F 33.1 °F 79% 29.73 in 10.0 mi NNW 12.7 mph - N/A   Clear
11:48 PM 39.9 °F 30.0 °F 33.1 °F 77% 29.73 in 10.0 mi NNW 21.9 mph - N/A   Clear